Terminal Aerodrome Forecast
Issued by NWS Charleston, WV

Current Version | Previous Version | Graphics & Text | Print | Product List | Glossary On
Versions: 1 2 3 4 5 6 7 8 9 10 11 12 13 14 15 16 17 18 19 20 21 22 23 24
000
FTUS41 KRLX 140200 AAA
TAFPKB
TAF AMD
KPKB 140201Z 1402/1424 18007KT P6SM BKN250
     FM141000 19010KT P6SM BKN210
     FM141500 19014G21KT P6SM BKN050
     FM141900 21015G26KT P6SM VCTS BKN045CB=

USA.gov is the U.S. government's official web portal to all federal, state and local government web resources and services.